Wind_Speed
21 22 21 22 23 23 22 23 24 25 24 25 25 25 25 24 25 24 24 24 23 23 22 22 22 21 21 21 20 19 18 18 18 19 19 19 19 19 19 19 20 21 21
23 22 23 23 23 24 24 24 25 26 25 26 26 26 26 26 25 25 25 26 25 25 24 24 23 23 23 23 22 20 20 20 20 20 20 20 20 20 20 20 21 22 22
24 23 23 23 24 25 26 26 26 26 26 27 27 26 26 27 26 26 26 26 26 25 24 24 25 25 25 25 23 22 21 20 20 20 21 21 21 22 22 22 22 23 23
24 24 24 24 24 25 26 26 26 25 26 26 27 26 27 28 27 27 27 26 26 25 26 25 25 26 26 26 25 24 23 23 22 21 22 22 22 22 23 22 22 22 23
25 26 25 25 25 25 26 27 26 26 26 26 26 26 27 28 29 29 29 28 28 27 27 27 26 26 27 27 26 25 25 24 23 23 22 22 22 22 23 23 23 23 23
26 26 26 26 26 26 27 27 27 27 27 27 27 28 28 28 29 30 31 31 29 29 29 28 28 28 28 28 26 25 25 25 24 24 24 23 22 23 24 24 24 24 25
26 26 26 27 27 27 27 27 28 28 28 28 29 29 30 30 30 31 32 31 32 31 30 30 30 29 28 28 27 26 26 26 25 25 25 24 24 23 24 25 25 25 26
26 26 26 27 27 28 28 28 28 28 28 29 30 30 31 31 32 32 33 32 31 30 30 29 29 29 29 28 28 27 27 27 27 26 26 26 26 25 25 25 26 26 27
27 27 26 27 28 28 28 27 27 28 29 29 30 30 30 31 32 31 31 30 29 29 29 29 29 29 29 28 28 27 27 28 27 27 27 27 26 26 26 26 26 26 26
27 27 27 27 27 27 27 27 27 27 28 28 29 30 30 31 31 29 29 29 29 29 28 28 28 29 29 29 28 28 28 28 27 27 27 27 27 26 26 26 26 26 26
27 27 27 27 26 27 27 27 27 28 28 28 29 29 29 29 29 29 29 28 29 29 29 29 29 29 29 29 29 28 28 27 26 26 26 27 27 27 27 26 26 27 27
27 26 26 26 26 26 26 27 27 27 27 27 27 28 28 28 29 29 29 28 29 29 30 29 29 29 29 29 28 28 28 27 27 27 27 26 26 26 26 26 26 27 27
28 27 27 27 27 27 26 26 26 26 26 26 27 27 27 27 28 28 29 28 28 28 28 29 29 29 29 29 28 27 27 27 27 27 26 26 26 26 26 26 26 26 27
27 28 28 28 28 27 26 26 25 25 25 25 25 26 26 26 27 27 27 26 26 27 26 26 27 28 28 27 26 26 26 26 26 26 26 26 26 26 26 26 26 26 27
27 26 26 26 26 26 26 25 24 24 24 24 24 24 24 24 24 24 25 24 24 24 25 25 25 25 25 26 25 25 26 25 25 25 25 26 26 26 26 25 25 26 26
25 25 25 25 24 24 24 23 23 23 23 24 24 23 23 24 23 23 23 23 23 23 23 23 24 24 24 24 24 24 24 24 24 25 25 25 25 25 25 25 25 25 25
25 25 24 24 23 23 22 22 22 22 22 23 23 22 21 21 22 22 22 22 22 23 22 23 23 24 24 23 23 22 23 23 23 23 24 24 23 23 24 24 24 24 24
24 24 24 23 23 22 22 21 21 21 20 20 21 21 21 20 20 20 20 21 22 22 22 22 22 23 23 23 22 22 21 21 21 22 22 23 22 22 23 23 23 22 23
23 23 23 22 22 21 21 21 21 20 19 19 19 19 19 19 19 19 19 20 20 20 20 21 21 21 21 22 22 22 21 21 21 20 20 20 21 22 22 22 22 21 21
21 20 20 20 20 19 19 19 18 18 18 18 17 17 18 18 18 18 18 18 18 19 19 19 19 19 20 20 21 21 21 20 20 20 19 19 19 19 19 20 20 20 20
19 18 18 18 17 17 17 17 16 16 16 15 15 14 15 15 15 16 17 17 17 18 18 18 18 19 19 19 19 20 20 20 20 19 18 18 17 17 17 17 17 17 18
16 16 16 15 15 14 14 15 14 13 12 12 13 13 13 13 14 14 15 16 16 16 16 17 17 18 18 18 17 18 18 19 19 19 18 17 17 16 16 16 16 16 16
14 14 13 12 12 13 12 11 11 11 12 12 11 10 11 11 12 12 13 14 15 15 15 15 15 15 16 16 16 17 17 17 17 18 18 18 17 16 15 16 17 17 16
13 12 11 10 10 10 9 8 8 8 9 10 9 8 9 9 10 10 10 11 12 13 14 14 13 13 14 15 15 16 16 17 17 17 18 17 16 16 16 16 17 17 16
10 10 10 10 9 8 7 7 6 6 7 6 6 6 7 7 8 8 8 9 10 11 11 12 12 12 12 13 13 14 14 15 15 16 16 16 15 15 15 16 16 16 16
9 9 8 8 7 6 6 5 4 4 5 4 4 5 6 6 5 7 7 8 9 10 10 10 11 11 11 11 12 12 12 12 13 13 14 14 14 14 15 15 15 15 15
Wind_Direction
285 283 280 280 277 276 277 276 274 275 276 272 271 268 267 264 262 262 261 261 262 261 262 261 262 261 261 260 259 261 260 260 261 258 254 254 253 254 254 254 253 252 254
284 283 282 280 277 277 278 277 275 276 276 274 272 269 267 265 263 263 263 262 262 261 261 260 261 261 261 262 261 261 261 261 261 262 258 255 254 255 257 258 257 256 256
283 281 281 280 277 277 278 276 276 276 275 273 271 268 267 265 265 265 264 263 261 259 259 260 260 261 263 264 264 263 262 263 261 261 262 261 258 257 257 258 259 258 258
283 280 279 280 279 278 279 277 275 275 274 272 270 267 265 266 264 265 265 264 262 260 260 261 262 262 262 262 263 265 264 263 263 263 264 264 262 260 259 258 260 260 260
283 280 279 280 280 279 278 277 274 273 273 271 269 267 266 265 264 265 264 264 263 261 261 261 262 264 262 262 262 264 264 263 264 264 264 265 265 262 262 261 260 260 262
285 282 280 279 278 277 277 276 274 273 273 270 270 269 269 268 266 265 265 264 261 259 260 261 261 262 263 262 261 263 264 263 263 264 265 266 266 266 264 264 264 262 263
287 284 282 281 278 277 277 276 274 274 273 271 271 270 269 269 268 265 263 263 261 261 260 260 260 259 260 259 259 261 263 264 264 263 264 265 267 267 266 266 265 264 263
287 285 282 281 280 278 277 277 276 274 272 272 272 270 269 269 268 266 263 261 259 259 260 260 259 259 259 259 260 260 262 263 262 262 263 264 264 265 267 268 266 265 266
288 285 284 282 281 279 279 278 275 274 274 273 272 272 270 270 267 265 262 259 257 257 258 258 258 258 258 259 258 259 261 262 261 260 262 263 264 267 267 268 267 267 269
288 286 285 283 281 280 281 280 278 277 276 275 273 272 271 270 268 265 261 260 258 258 258 257 257 258 258 258 258 259 260 260 260 261 263 264 265 266 268 270 271 271 272
288 286 286 286 284 283 281 281 280 278 278 276 274 272 270 269 267 264 262 259 258 258 257 256 255 256 256 256 257 260 260 260 261 262 264 266 266 268 270 271 274 274 274
288 287 286 286 285 284 282 282 281 278 277 275 275 273 271 268 265 261 259 260 258 257 256 256 254 254 254 255 257 258 260 260 261 262 265 267 267 268 270 273 275 275 276
288 288 287 284 284 283 283 282 282 282 279 277 276 275 273 267 264 263 260 258 259 258 255 254 254 254 254 255 257 258 260 261 261 263 265 267 268 270 272 274 275 276 276
287 287 287 286 285 285 284 284 282 282 281 279 277 274 272 267 265 264 261 261 260 258 254 253 254 254 255 257 260 260 260 261 262 263 265 267 268 270 271 273 274 276 277
288 288 287 286 285 284 283 282 280 280 280 279 277 275 272 268 265 264 263 262 261 258 255 253 254 255 256 258 261 262 263 263 263 264 265 267 268 269 270 271 272 275 276
290 289 289 287 287 286 284 283 282 279 279 279 278 275 272 267 263 262 262 261 259 258 256 255 254 254 256 258 260 261 262 263 265 265 266 268 268 268 269 270 273 274 275
290 290 288 288 287 285 284 283 283 281 279 278 278 274 270 268 264 262 262 260 258 258 258 256 255 255 257 259 259 260 262 263 264 266 268 269 271 271 271 273 274 275 277
291 290 288 286 283 281 281 282 283 282 279 278 276 272 269 268 265 262 260 258 258 258 257 256 255 257 258 258 259 260 262 263 263 266 268 269 271 272 272 275 275 277 279
292 290 289 286 282 280 280 280 280 281 280 279 276 273 269 266 263 261 259 259 259 257 257 258 255 256 258 258 259 260 263 263 264 266 268 270 272 273 272 274 275 277 279
295 293 290 288 286 283 282 281 281 280 282 281 277 272 268 265 262 261 261 260 257 254 255 257 255 256 258 259 260 260 261 261 263 264 266 270 273 273 273 274 272 274 275
300 297 293 289 287 285 282 281 283 283 281 279 275 271 266 264 264 261 260 258 256 253 253 254 255 257 258 258 258 259 259 261 262 263 265 267 270 273 274 274 276 277 276
306 302 296 293 289 286 282 280 280 282 279 278 276 273 270 266 264 261 258 256 254 252 252 253 253 255 254 255 257 259 260 262 262 260 263 266 269 271 271 271 274 276 277
315 312 307 302 297 289 282 280 278 276 276 276 279 276 271 268 263 261 259 253 252 252 252 254 255 254 253 254 257 258 258 259 261 263 263 265 266 266 269 270 272 274 275
321 319 317 314 308 297 289 284 280 278 279 281 278 280 274 264 262 261 260 255 252 252 254 253 253 254 254 254 254 256 257 256 257 260 262 263 262 264 265 267 269 270 270
326 324 319 319 317 310 302 293 283 285 289 286 281 282 283 274 266 258 255 251 248 250 253 254 252 255 257 253 253 255 257 257 256 257 258 259 260 263 267 268 269 268 269
333 333 332 328 324 325 321 310 292 293 297 294 291 288 287 282 273 259 251 248 250 251 250 251 252 255 254 254 256 258 258 256 256 256 256 258 260 262 265 268 268 265 267
Height
5863 5862 5860 5859 5858 5857 5857 5856 5856 5855 5855 5855 5855 5855 5855 5855 5855 5855 5855 5856 5857 5857 5857 5858 5857 5858 5858 5858 5858 5859 5859 5859 5859 5860 5861 5861 5862 5862 5863 5863 5864 5865 5865
5858 5856 5855 5854 5853 5852 5851 5850 5850 5849 5849 5849 5849 5849 5848 5849 5849 5850 5850 5850 5851 5851 5852 5852 5852 5852 5853 5853 5854 5854 5854 5854 5855 5855 5856 5856 5857 5857 5858 5859 5859 5860 5860
5853 5851 5850 5849 5847 5846 5846 5845 5844 5843 5843 5843 5842 5842 5842 5842 5843 5843 5844 5844 5845 5845 5846 5847 5847 5847 5847 5848 5848 5849 5849 5849 5850 5850 5851 5851 5852 5852 5853 5853 5854 5854 5855
5847 5845 5844 5843 5842 5840 5840 5839 5838 5837 5837 5836 5836 5836 5836 5836 5836 5837 5838 5838 5839 5839 5840 5841 5841 5842 5842 5842 5843 5843 5844 5844 5845 5845 5845 5846 5846 5847 5847 5848 5849 5849 5849
5841 5839 5838 5837 5835 5834 5833 5832 5832 5831 5830 5830 5829 5829 5829 5830 5830 5831 5831 5832 5832 5833 5834 5834 5835 5835 5836 5837 5837 5837 5838 5839 5839 5839 5840 5840 5841 5841 5842 5842 5843 5843 5844
5835 5833 5832 5830 5829 5828 5827 5826 5825 5825 5824 5823 5823 5823 5823 5823 5824 5824 5825 5825 5826 5826 5827 5828 5829 5829 5830 5830 5831 5831 5832 5833 5833 5833 5834 5834 5835 5835 5836 5836 5837 5837 5838
5828 5826 5825 5824 5822 5821 5820 5819 5818 5818 5817 5817 5817 5817 5817 5816 5816 5817 5817 5818 5819 5819 5820 5820 5821 5822 5823 5824 5825 5825 5826 5827 5827 5827 5828 5828 5829 5829 5830 5830 5831 5831 5831
5822 5819 5818 5817 5816 5814 5813 5812 5812 5811 5811 5810 5810 5809 5809 5810 5809 5809 5810 5810 5811 5812 5812 5813 5814 5815 5816 5817 5818 5819 5819 5820 5821 5821 5821 5822 5822 5822 5823 5824 5824 5824 5825
5815 5813 5811 5810 5809 5808 5806 5805 5804 5804 5803 5803 5802 5802 5802 5802 5802 5802 5802 5803 5803 5804 5805 5806 5807 5808 5809 5810 5811 5812 5813 5813 5814 5815 5815 5815 5816 5816 5817 5817 5818 5818 5818
5808 5806 5804 5803 5801 5800 5799 5798 5797 5797 5796 5795 5795 5794 5794 5794 5794 5794 5795 5795 5796 5797 5798 5799 5800 5801 5802 5803 5804 5805 5806 5807 5807 5808 5809 5809 5810 5810 5810 5811 5811 5811 5811
5802 5799 5798 5796 5795 5793 5792 5791 5790 5789 5789 5788 5787 5787 5786 5786 5786 5787 5787 5788 5788 5790 5791 5792 5793 5794 5795 5796 5797 5798 5799 5800 5801 5801 5802 5802 5803 5804 5804 5804 5804 5804 5804
5795 5793 5791 5790 5788 5787 5786 5784 5783 5782 5781 5780 5780 5779 5778 5778 5778 5779 5779 5780 5781 5782 5783 5784 5786 5787 5788 5789 5790 5792 5793 5793 5794 5795 5795 5796 5796 5797 5797 5798 5798 5797 5797
5789 5787 5784 5783 5781 5780 5779 5777 5776 5775 5774 5773 5772 5771 5770 5770 5771 5771 5772 5773 5773 5774 5775 5777 5779 5780 5781 5783 5784 5785 5786 5787 5787 5788 5789 5789 5790 5790 5791 5791 5791 5790 5790
5782 5780 5778 5776 5774 5773 5771 5770 5769 5768 5767 5766 5765 5764 5763 5763 5763 5764 5765 5766 5766 5767 5768 5770 5771 5773 5774 5776 5777 5778 5779 5780 5780 5781 5782 5782 5783 5783 5784 5784 5784 5783 5783
5775 5773 5771 5769 5767 5766 5764 5763 5762 5761 5760 5759 5758 5758 5757 5757 5757 5757 5758 5759 5760 5761 5762 5763 5764 5766 5767 5769 5770 5771 5772 5773 5774 5775 5775 5776 5776 5776 5777 5777 5777 5777 5777
5768 5766 5764 5762 5761 5759 5758 5757 5756 5755 5754 5753 5752 5751 5751 5750 5751 5751 5752 5753 5754 5755 5756 5757 5758 5760 5761 5762 5764 5765 5766 5766 5767 5768 5768 5769 5769 5770 5770 5770 5770 5770 5770
5762 5759 5758 5756 5754 5753 5752 5751 5750 5749 5748 5747 5746 5745 5745 5745 5745 5745 5746 5747 5748 5749 5750 5751 5752 5753 5755 5756 5757 5758 5759 5760 5761 5761 5762 5762 5763 5763 5763 5764 5764 5763 5763
5755 5753 5751 5750 5748 5747 5746 5745 5744 5743 5742 5741 5740 5739 5739 5739 5739 5739 5740 5741 5742 5743 5744 5745 5746 5747 5749 5750 5751 5752 5753 5754 5755 5755 5755 5756 5756 5757 5757 5757 5757 5757 5756
5749 5747 5745 5743 5742 5741 5740 5739 5738 5737 5736 5735 5734 5734 5734 5733 5734 5734 5734 5735 5736 5737 5738 5739 5740 5742 5743 5744 5745 5746 5747 5748 5749 5749 5750 5750 5751 5751 5751 5751 5751 5751 5750
5743 5741 5739 5737 5736 5735 5734 5733 5732 5731 5730 5729 5729 5728 5728 5728 5728 5728 5729 5730 5730 5732 5733 5734 5735 5736 5738 5738 5739 5741 5742 5742 5743 5744 5744 5744 5745 5745 5745 5745 5745 5744 5744
5737 5735 5733 5732 5731 5730 5729 5728 5727 5726 5725 5725 5724 5724 5723 5723 5723 5723 5724 5725 5726 5727 5728 5729 5730 5731 5732 5733 5734 5735 5736 5737 5737 5738 5739 5739 5739 5739 5739 5739 5739 5739 5738
5733 5731 5729 5727 5726 5725 5724 5723 5723 5722 5721 5721 5720 5719 5719 5719 5719 5719 5720 5720 5721 5723 5723 5724 5725 5726 5727 5728 5729 5730 5731 5732 5732 5733 5733 5734 5734 5734 5734 5734 5734 5734 5733
5729 5727 5725 5724 5722 5721 5720 5720 5719 5718 5718 5717 5716 5716 5715 5715 5715 5715 5716 5716 5717 5718 5719 5720 5721 5722 5723 5724 5724 5725 5726 5727 5727 5727 5728 5729 5729 5729 5729 5729 5729 5728 5728
5727 5725 5723 5721 5719 5718 5717 5717 5716 5716 5715 5714 5714 5713 5712 5712 5712 5712 5712 5713 5714 5715 5716 5717 5717 5718 5719 5719 5720 5721 5721 5722 5722 5722 5723 5724 5724 5724 5724 5724 5724 5723 5723
5725 5723 5721 5719 5718 5716 5715 5715 5715 5714 5713 5712 5711 5711 5710 5709 5709 5709 5710 5710 5711 5712 5713 5713 5714 5715 5715 5716 5716 5717 5717 5717 5717 5718 5718 5719 5719 5719 5719 5719 5719 5718 5718
5724 5722 5720 5718 5717 5715 5714 5714 5713 5713 5712 5711 5710 5709 5708 5708 5708 5707 5707 5708 5709 5709 5710 5711 5711 5712 5712 5712 5713 5713 5713 5713 5713 5714 5714 5714 5714 5714 5714 5714 5714 5713 5713